EHI
75 80 84 84 89 95 99 100 100 100 100 100 100 100 100 99 95 93 94 96 98 99 98 98 98 98 98 98 98 98 97 91 79 60 38 19 8 5 21 47 57 45 35
73 76 79 80 84 90 94 96 98 99 100 100 100 100 100 99 96 94 95 96 97 96 95 93 92 92 94 95 96 95 92 84 72 54 33 16 6 4 16 42 57 52 46
58 61 61 60 63 67 73 80 88 95 99 100 100 100 100 100 98 97 97 98 96 92 89 85 83 84 86 87 87 84 77 66 52 38 24 12 5 2 9 24 39 46 48
31 33 33 32 31 33 38 51 67 82 93 98 99 100 100 100 100 99 99 98 94 88 83 80 78 78 78 75 69 65 59 45 31 23 16 9 4 2 2 7 15 24 28
9 10 11 11 10 10 13 23 39 60 79 91 95 98 99 99 99 99 99 97 93 86 79 75 74 71 68 62 55 50 44 31 20 14 9 5 3 1 0 1 3 6 7
1 1 2 2 2 2 3 8 19 37 58 70 79 87 92 92 92 93 94 95 93 86 76 70 67 64 60 54 47 40 30 21 14 8 3 1 1 0 0 0 0 0 1
0 0 0 0 0 0 0 3 10 24 37 48 57 68 74 74 74 80 86 90 91 87 78 69 63 59 53 45 37 28 18 12 8 3 0 0 0 0 0 0 0 0 0
0 0 0 0 0 0 0 2 9 21 31 37 42 48 51 52 58 69 78 82 83 81 75 66 58 51 44 35 27 18 11 7 3 1 0 0 0 0 0 0 0 0 0
0 0 0 0 0 1 1 3 10 22 30 32 29 29 32 39 48 58 63 66 66 62 57 50 42 36 30 23 17 12 7 4 1 0 0 0 0 0 0 0 0 0 0
0 0 0 0 0 1 2 4 10 18 23 21 17 17 20 25 32 38 38 39 39 35 31 26 21 18 15 12 7 5 3 1 0 0 0 0 0 0 0 0 0 0 0
0 0 0 0 0 1 3 4 6 12 14 12 11 12 11 10 12 14 14 15 15 14 12 10 7 5 5 4 2 1 0 0 0 0 0 0 0 0 0 0 0 0 0
0 0 0 0 0 2 3 3 3 5 7 7 6 6 4 2 2 2 3 3 4 4 3 2 2 1 1 1 0 0 0 0 0 0 0 0 0 0 0 0 0 0 0
0 0 0 0 1 2 3 3 2 2 3 3 2 1 0 0 0 0 0 0 1 1 0 0 0 0 0 0 0 0 0 0 0 0 0 0 0 0 0 0 0 0 0
0 0 0 0 1 3 5 4 3 3 1 1 0 0 0 0 0 0 0 0 0 0 0 0 0 0 0 0 0 0 0 0 0 0 0 0 0 0 0 0 0 0 0
0 0 0 0 1 3 4 5 4 3 2 0 0 0 0 0 0 0 0 0 0 0 0 0 0 0 0 0 0 0 0 0 0 0 0 0 0 0 0 0 0 0 0
0 0 0 1 2 5 8 8 6 5 3 1 0 0 0 0 0 0 0 0 0 0 0 0 0 0 0 0 0 0 0 0 0 0 0 0 0 0 0 0 0 0 0
0 0 0 2 7 14 20 17 9 5 5 2 0 0 0 0 0 0 0 0 0 0 0 0 0 0 0 0 0 0 0 0 0 0 0 0 0 0 0 0 0 0 0
0 0 0 4 12 23 30 24 11 4 4 3 1 0 0 0 0 0 0 0 0 0 0 0 0 0 0 0 0 0 0 0 0 0 0 0 0 0 0 0 0 0 0
0 0 0 4 17 35 41 28 12 3 2 2 1 0 0 0 0 0 0 0 0 0 0 0 0 0 0 0 0 0 0 0 0 0 0 0 0 0 0 0 0 0 0
0 0 0 5 23 49 58 40 16 3 1 0 0 0 0 0 0 0 0 0 0 0 0 0 0 0 0 0 0 0 0 0 0 0 0 0 0 0 0 0 0 0 0
0 0 0 6 24 51 66 55 29 9 2 0 0 0 0 0 0 0 0 0 0 0 0 0 0 0 0 0 0 0 0 0 0 0 0 0 0 0 0 0 0 0 0
0 0 0 4 16 38 58 62 46 22 5 0 0 0 0 0 0 0 0 0 0 0 0 0 0 0 0 0 0 0 0 0 0 0 0 0 0 0 0 0 0 0 0
0 0 0 1 7 21 40 53 52 31 9 0 0 0 0 0 0 0 0 0 0 0 0 0 0 0 0 0 0 0 0 0 0 0 0 0 0 0 0 0 0 0 0
0 0 0 0 2 8 17 29 37 27 9 0 0 0 0 0 0 0 0 0 0 0 0 0 0 0 0 0 0 0 0 0 0 0 0 0 0 0 0 0 0 0 0
0 0 0 0 0 1 4 9 16 15 6 1 0 0 0 0 0 0 0 0 0 0 0 0 0 0 0 0 0 0 0 0 0 0 0 0 0 0 0 0 0 0 0
0 0 0 0 0 0 0 2 5 6 4 1 0 0 0 0 0 0 0 0 0 0 0 0 0 0 0 0 0 0 0 0 0 0 0 0 0 0 0 0 0 0 0
Wind_Speed
7 7 4 4 4 2 2 3 4 3 3 4 5 6 7 5 5 5 6 6 5 5 5 4 4 4 4 4 4 3 4 3 3 3 6 8 9 11 10 8 7 6 6
7 7 6 7 8 7 6 3 2 3 4 5 5 5 5 5 6 6 5 5 6 5 6 5 5 5 4 5 5 5 3 3 3 2 3 6 7 8 6 3 4 5 4
6 6 6 7 7 7 6 6 5 4 4 5 4 5 4 5 6 6 4 4 4 4 4 5 5 5 5 5 5 5 6 4 3 4 3 4 4 5 5 4 2 2 2
5 5 4 3 3 4 4 4 4 4 4 5 4 6 6 7 8 6 5 5 5 5 6 6 6 5 5 5 6 6 4 4 4 3 4 6 5 3 4 4 4 4 3
3 2 1 1 2 4 3 2 2 3 4 5 5 5 6 6 6 6 6 6 6 7 7 7 6 6 5 6 6 4 4 4 3 3 3 5 5 5 4 5 4 4 3
2 2 1 1 2 4 3 3 2 3 3 4 5 5 7 7 8 7 6 6 5 6 8 7 6 6 6 6 5 4 4 3 3 3 4 4 3 2 3 4 4 4 3
2 2 2 3 3 4 4 3 3 3 3 4 5 5 6 7 8 8 7 6 5 5 7 8 7 6 6 5 5 4 4 4 4 4 4 4 4 3 2 3 3 4 3
4 3 4 3 3 5 4 4 4 3 4 4 5 5 7 7 6 6 6 6 5 5 5 7 6 6 6 6 5 4 4 4 4 5 4 3 3 2 2 1 2 3 2
4 5 6 5 5 5 5 5 5 4 4 5 6 6 6 7 7 7 6 5 4 4 4 5 6 6 5 5 4 3 3 2 2 3 3 2 2 1 2 2 2 2 3
7 6 5 4 4 4 5 5 4 4 4 5 5 6 7 7 5 4 4 4 3 3 2 3 3 3 3 3 3 3 3 2 2 2 1 0 1 1 2 2 2 2 2
9 6 5 4 5 5 5 5 4 4 4 4 4 5 6 6 4 4 4 4 4 4 3 2 1 0 1 2 2 2 1 2 1 1 2 3 3 3 3 2 2 2 1
9 7 6 5 5 5 5 5 4 4 3 3 3 4 4 4 4 4 5 6 6 5 5 4 3 2 1 1 1 1 3 4 4 4 4 4 4 4 4 3 3 2 2
7 5 4 3 4 5 5 5 4 3 2 1 2 2 3 4 5 5 5 6 6 6 5 5 5 4 3 3 4 4 5 6 6 6 6 6 6 6 4 4 4 4 4
6 5 3 2 2 3 4 5 4 2 2 1 1 1 2 3 4 4 5 5 5 5 5 5 4 4 4 4 6 6 6 7 7 7 7 7 7 6 5 6 6 5 4
8 6 3 2 2 3 4 4 4 3 2 2 2 2 3 3 3 3 3 3 3 3 3 4 3 3 3 4 5 6 7 6 6 6 7 7 8 9 7 7 6 7 6
9 7 5 3 3 4 5 5 4 4 4 4 3 4 5 5 4 3 2 1 1 1 1 1 2 4 6 8 9 7 6 5 5 5 5 7 7 6 7 9 10 9 8
10 9 7 4 3 4 4 5 4 4 5 5 4 5 7 7 6 5 3 2 1 1 1 2 5 6 6 10 10 9 6 6 6 6 6 7 9 8 5 3 4 7 9
13 10 8 6 4 5 5 5 6 5 6 5 5 5 8 8 8 6 4 3 2 2 2 4 5 5 6 9 10 9 6 6 6 7 7 7 8 9 8 5 5 5 5
13 10 9 8 5 5 6 6 7 6 7 7 6 7 8 9 9 8 6 4 3 3 3 4 6 5 4 7 9 8 3 4 6 8 8 7 7 11 11 6 5 5 3
15 13 12 9 6 6 6 7 8 7 7 7 6 7 8 9 10 9 7 5 4 4 4 5 5 6 5 4 7 8 2 3 5 6 7 10 8 9 10 6 5 5 5
18 16 13 10 7 6 7 8 9 8 7 6 6 6 8 9 10 9 7 7 6 6 5 6 5 6 6 5 6 7 3 2 2 5 6 4 6 7 8 6 4 4 6
20 19 15 12 10 7 8 10 10 8 6 6 6 7 8 9 10 10 9 8 8 7 6 6 6 5 5 5 5 6 6 5 4 5 5 4 4 5 5 4 6 10 8
19 17 17 16 13 11 9 12 10 8 7 6 6 7 9 8 8 11 11 9 8 8 8 8 7 6 6 5 5 4 5 7 5 5 5 5 3 1 1 2 5 6 5
17 16 17 17 15 14 13 12 9 8 8 8 7 7 8 8 9 8 9 9 10 9 8 8 8 7 7 6 5 4 3 4 4 4 4 3 2 2 2 2 1 1 3
16 16 15 16 16 15 16 14 10 9 10 9 8 9 9 9 9 9 6 8 7 7 7 7 7 8 7 6 7 4 3 3 3 4 3 3 4 4 3 2 3 3 3
15 16 17 16 16 15 14 15 11 10 10 9 9 9 9 8 8 8 7 7 4 7 9 8 8 7 11 15 13 11 9 7 5 2 4 4 4 3 2 2 3 4 4
Wind_Direction
54 46 22 16 31 68 154 198 217 234 241 233 229 230 237 245 248 236 229 222 217 204 192 221 212 217 227 228 227 232 236 238 242 263 278 272 265 259 245 234 235 244 255
67 55 25 19 20 24 12 0 356 297 272 258 256 256 258 258 251 249 235 217 211 207 212 215 228 230 235 232 229 226 229 229 226 234 274 281 279 271 263 219 212 231 242
78 70 49 31 20 12 4 8 10 351 324 299 280 275 271 264 263 259 250 235 228 220 230 232 237 236 234 233 225 221 226 228 236 232 229 263 274 328 316 301 267 251 253
83 68 56 36 5 353 353 359 359 354 342 329 307 286 268 262 261 261 257 247 237 237 233 234 231 232 233 234 232 221 217 219 236 252 255 252 269 283 303 317 339 348 335
104 88 359 338 320 310 310 311 348 345 336 326 311 299 289 280 278 272 260 246 235 227 230 229 227 228 231 231 232 228 220 217 233 254 280 279 265 237 249 284 305 319 315
168 173 282 302 289 291 291 300 317 313 311 308 307 300 298 296 292 282 269 254 240 227 225 225 221 223 224 224 225 227 225 221 239 253 261 273 272 268 243 264 292 295 290
277 282 303 299 286 283 287 291 291 289 298 303 304 307 304 296 284 280 272 263 254 237 221 216 214 218 216 217 216 218 224 224 235 246 254 262 262 265 251 253 280 290 287
282 296 293 283 292 310 320 315 315 309 310 311 312 309 301 293 287 283 277 270 261 255 240 222 215 217 215 216 208 213 223 228 234 251 257 265 273 270 260 271 308 312 315
307 311 315 333 334 335 336 328 323 322 322 325 323 308 306 303 299 296 292 286 276 264 244 225 215 214 216 214 203 211 228 244 243 254 255 261 282 287 312 326 335 329 330
312 317 341 346 343 340 326 319 321 322 332 332 329 327 334 328 323 318 316 315 312 307 280 237 223 205 200 198 203 223 227 210 210 222 224 321 10 6 339 338 338 345 335
321 333 340 348 346 339 328 329 328 327 337 340 349 347 341 345 0 10 13 20 24 25 23 1 347 216 191 201 210 240 201 155 132 102 92 74 59 34 6 5 4 357 349
328 332 339 346 342 332 326 326 321 325 347 358 1 4 6 15 24 36 40 40 36 30 29 20 15 6 348 30 51 49 105 109 101 84 73 63 61 45 29 2 4 352 344
325 325 321 320 318 317 321 317 313 321 331 359 10 22 35 41 42 46 45 42 33 25 21 18 10 11 26 57 75 85 89 84 75 68 64 58 51 37 15 19 14 9 17
310 303 290 280 294 304 297 293 292 288 277 209 205 107 76 72 69 59 46 41 32 19 12 19 23 34 47 71 84 86 82 80 76 70 64 57 51 32 9 35 20 16 16
306 302 306 293 263 274 269 261 260 245 248 245 222 168 152 128 107 82 58 39 31 24 4 13 29 64 72 73 93 102 95 89 90 89 86 77 74 60 49 51 30 25 28
314 320 324 305 260 251 261 255 238 227 228 238 232 179 170 160 149 137 117 68 9 11 360 5 64 75 72 60 66 87 93 89 84 88 104 106 79 76 72 72 60 51 48
343 338 326 301 256 237 240 249 244 225 222 228 230 192 181 175 172 175 174 186 189 174 198 116 91 84 64 59 56 52 88 78 69 61 52 66 56 40 32 66 84 65 59
334 326 314 297 263 230 219 226 238 233 224 225 226 202 188 185 179 183 182 181 169 165 161 117 105 99 73 53 48 37 85 81 74 67 66 70 49 26 13 33 58 62 51
318 304 295 284 256 229 220 223 230 236 234 226 216 203 190 185 180 182 181 179 174 175 160 128 121 108 85 51 39 23 80 90 79 68 53 63 56 25 20 32 40 42 25
324 318 310 296 266 225 210 219 230 232 235 233 214 196 185 183 183 181 180 175 177 179 167 146 140 135 121 71 44 21 13 114 115 107 86 66 59 39 30 27 30 22 352
326 324 317 308 284 240 210 216 228 231 232 226 203 189 183 183 182 178 177 176 183 183 173 155 152 144 131 108 62 37 27 1 133 128 108 81 60 51 34 27 35 356 319
329 330 328 322 303 263 224 216 220 223 225 218 201 188 183 188 182 177 181 185 183 177 169 161 158 144 139 124 101 74 55 21 48 83 100 110 87 59 30 20 1 351 346
328 329 327 323 319 299 248 225 215 210 218 212 200 188 188 193 174 175 180 182 182 181 175 173 173 164 149 126 127 111 73 56 68 87 113 136 140 85 286 311 342 358 15
322 324 324 324 322 320 296 245 215 203 211 209 198 186 188 184 174 176 179 182 183 186 181 181 177 165 157 159 164 164 146 121 134 146 144 170 193 257 287 270 280 84 51
313 316 318 319 321 323 319 285 231 205 208 205 197 190 189 186 177 179 180 192 188 190 182 181 172 166 168 158 156 174 161 166 142 150 170 197 203 213 209 161 100 73 50
310 312 312 315 318 319 317 309 268 221 208 204 198 194 190 183 179 171 146 57 100 135 150 156 155 149 143 138 126 115 111 107 119 164 216 208 203 170 120 96 104 97 69